AFR23CY EDDN-LFPG

Flight info

Callsign AFR23CY
Flight time 1h 11m
Altitude 32000
Route SUKAD1G SUKAD Y165 EDUDU Y101 OSBIT L984 LOHRE DCT BOMBI DCT NOSPA UN857 TOLVU DCT RAPOR DCT VEDUS
Aircraft E190/M-SDE3GILORVW/S

Departure

Time 2026-05-07 16:44
Airport Nuremberg Airport (EDDN)

Arrival

Time 2026-05-07 17:55
Airport Charles de Gaulle International Airport (LFPG)
Time Latitude Longitude Altitude Speed Heading
2026-05-07 16:02 49.49536 11.07585 1025 ft 0 kts 188°
2026-05-07 16:33 49.49556 11.07590 1023 ft 4 kts 188°
2026-05-07 16:33 49.49578 11.07595 1024 ft 4 kts 179°
2026-05-07 16:33 49.49600 11.07585 1020 ft 4 kts 122°
2026-05-07 16:34 49.49607 11.07549 1023 ft 4 kts 98°
2026-05-07 16:34 49.49609 11.07534 1024 ft 0 kts 98°
2026-05-07 16:38 49.49607 11.07556 1023 ft 5 kts 98°
2026-05-07 16:38 49.49599 11.07633 1022 ft 10 kts 98°
2026-05-07 16:38 49.49587 11.07750 1021 ft 12 kts 98°
2026-05-07 16:38 49.49575 11.07884 1026 ft 13 kts 98°
2026-05-07 16:39 49.49560 11.08031 1024 ft 15 kts 98°
2026-05-07 16:39 49.49544 11.08196 1023 ft 16 kts 98°
2026-05-07 16:39 49.49539 11.08326 1028 ft 8 kts 63°
2026-05-07 16:39 49.49581 11.08355 1031 ft 6 kts 14°
2026-05-07 16:40 49.49611 11.08382 1032 ft 5 kts 52°
2026-05-07 16:40 49.49614 11.08442 1033 ft 8 kts 95°
2026-05-07 16:40 49.49604 11.08546 1034 ft 12 kts 99°
2026-05-07 16:40 49.49589 11.08693 1035 ft 15 kts 98°
2026-05-07 16:41 49.49574 11.08853 1036 ft 16 kts 98°
2026-05-07 16:41 49.49556 11.09020 1038 ft 16 kts 100°
2026-05-07 16:41 49.49537 11.09188 1041 ft 16 kts 99°
2026-05-07 16:41 49.49531 11.09349 1044 ft 14 kts 78°
2026-05-07 16:42 49.49580 11.09465 1047 ft 12 kts 54°
2026-05-07 16:42 49.49633 11.09564 1050 ft 11 kts 31°
2026-05-07 16:42 49.49694 11.09537 1051 ft 11 kts 300°
2026-05-07 16:42 49.49704 11.09479 1050 ft 1 kts 280°
2026-05-07 16:43 49.49709 11.09441 1049 ft 8 kts 280°
2026-05-07 16:43 49.49750 11.09015 1042 ft 75 kts 279°
2026-05-07 16:43 49.49861 11.07887 1029 ft 136 kts 278°
2026-05-07 16:43 49.50023 11.06276 1358 ft 162 kts 279°
2026-05-07 16:44 49.50229 11.04467 2021 ft 176 kts 279°
2026-05-07 16:44 49.50412 11.02541 2210 ft 191 kts 277°
2026-05-07 16:44 49.50580 11.00526 2763 ft 190 kts 277°
2026-05-07 16:44 49.50759 10.98500 3502 ft 193 kts 278°
2026-05-07 16:45 49.50951 10.96425 4213 ft 197 kts 278°
2026-05-07 16:45 49.51156 10.94288 4908 ft 207 kts 278°
2026-05-07 16:45 49.51372 10.92049 5612 ft 217 kts 277°
2026-05-07 16:45 49.51602 10.89694 6339 ft 227 kts 277°
2026-05-07 16:46 49.51840 10.87231 7007 ft 239 kts 277°
2026-05-07 16:46 49.52088 10.84641 7615 ft 250 kts 277°
2026-05-07 16:46 49.52348 10.81930 8223 ft 261 kts 277°
2026-05-07 16:46 49.52617 10.79122 8844 ft 270 kts 277°
2026-05-07 16:47 49.52893 10.76240 9483 ft 275 kts 277°
2026-05-07 16:47 49.53174 10.73310 10106 ft 278 kts 276°
2026-05-07 16:47 49.53458 10.70323 10676 ft 288 kts 276°
2026-05-07 16:47 49.53752 10.67221 11276 ft 299 kts 276°
2026-05-07 16:48 49.54056 10.64014 11898 ft 306 kts 276°
2026-05-07 16:48 49.54365 10.60745 12505 ft 311 kts 276°
2026-05-07 16:48 49.54678 10.57424 13127 ft 316 kts 276°
2026-05-07 16:48 49.54992 10.54065 13771 ft 319 kts 276°
2026-05-07 16:49 49.55573 10.50751 14355 ft 325 kts 293°
2026-05-07 16:49 49.56948 10.47956 14929 ft 333 kts 317°
2026-05-07 16:49 49.58956 10.46121 15519 ft 341 kts 337°
2026-05-07 16:49 49.61223 10.44956 16138 ft 346 kts 341°
2026-05-07 16:50 49.63546 10.43932 16783 ft 349 kts 342°
2026-05-07 16:50 49.65844 10.42724 17379 ft 349 kts 330°
2026-05-07 16:50 49.67924 10.40767 18034 ft 351 kts 323°
2026-05-07 16:50 49.69953 10.38636 18640 ft 355 kts 323°
2026-05-07 16:51 49.72036 10.36471 19224 ft 358 kts 323°
2026-05-07 16:51 49.74080 10.34344 19811 ft 361 kts 323°
2026-05-07 16:51 49.76170 10.32168 20409 ft 364 kts 323°
2026-05-07 16:51 49.78276 10.29972 21013 ft 366 kts 323°
2026-05-07 16:52 49.80401 10.27752 21624 ft 370 kts 323°
2026-05-07 16:52 49.82541 10.25511 22267 ft 373 kts 323°
2026-05-07 16:52 49.84696 10.23253 22929 ft 375 kts 323°
2026-05-07 16:52 49.86864 10.20974 23587 ft 377 kts 323°
2026-05-07 16:53 49.89044 10.18679 24150 ft 381 kts 323°
2026-05-07 16:53 49.91091 10.16098 24724 ft 379 kts 310°
2026-05-07 16:53 49.92641 10.12817 25324 ft 377 kts 300°
2026-05-07 16:53 49.94066 10.09395 25903 ft 378 kts 300°
2026-05-07 16:54 49.95495 10.05967 26521 ft 379 kts 300°
2026-05-07 16:54 49.96924 10.02542 27158 ft 377 kts 300°
2026-05-07 16:54 49.98349 9.99122 27779 ft 377 kts 300°
2026-05-07 16:54 49.99766 9.95717 28440 ft 374 kts 299°
2026-05-07 16:55 50.01173 9.92328 29093 ft 371 kts 299°
2026-05-07 16:55 50.02564 9.88967 29789 ft 368 kts 298°
2026-05-07 16:55 50.03940 9.85633 30413 ft 364 kts 298°
2026-05-07 16:55 50.05296 9.82340 31006 ft 359 kts 297°
2026-05-07 16:56 50.06411 9.78955 31605 ft 344 kts 284°
2026-05-07 16:56 50.06969 9.75407 32042 ft 337 kts 271°
2026-05-07 16:56 50.06978 9.67995 32130 ft 352 kts 264°
2026-05-07 16:57 50.06918 9.64128 32171 ft 363 kts 264°
2026-05-07 16:57 50.06857 9.60147 32175 ft 374 kts 264°
2026-05-07 16:57 50.06788 9.56026 32076 ft 387 kts 264°
2026-05-07 16:57 50.06720 9.51780 32063 ft 397 kts 265°
2026-05-07 16:58 50.06593 9.42967 32057 ft 416 kts 265°
2026-05-07 16:58 50.06484 9.33794 32051 ft 428 kts 265°
2026-05-07 16:59 50.06362 9.24486 32033 ft 431 kts 265°
2026-05-07 16:59 50.06230 9.15146 31791 ft 432 kts 265°
2026-05-07 17:00 50.06087 9.05785 31836 ft 433 kts 265°
2026-05-07 17:00 50.05937 8.96410 31895 ft 433 kts 265°
2026-05-07 17:01 50.05777 8.87026 31944 ft 434 kts 265°
2026-05-07 17:01 50.05614 8.77636 32006 ft 435 kts 265°
2026-05-07 17:02 50.05538 8.68223 32033 ft 436 kts 266°
2026-05-07 17:02 50.05457 8.58798 32042 ft 436 kts 266°
2026-05-07 17:03 50.05359 8.49354 32048 ft 436 kts 266°
2026-05-07 17:03 50.05271 8.41438 32045 ft 437 kts 266°
2026-05-07 17:04 50.05158 8.31993 32042 ft 437 kts 266°
2026-05-07 17:04 50.05036 8.22536 32051 ft 437 kts 266°
2026-05-07 17:05 50.04908 8.13077 32019 ft 437 kts 266°
2026-05-07 17:05 50.04773 8.03614 31972 ft 438 kts 266°
2026-05-07 17:06 50.04628 7.94154 31919 ft 437 kts 266°
2026-05-07 17:06 50.04475 7.84695 31871 ft 437 kts 266°
2026-05-07 17:07 50.04316 7.75245 31859 ft 437 kts 266°
2026-05-07 17:07 50.04145 7.65786 31911 ft 438 kts 266°
2026-05-07 17:08 50.03975 7.56325 31955 ft 437 kts 266°
2026-05-07 17:08 50.03800 7.46873 31997 ft 437 kts 266°
2026-05-07 17:09 50.03625 7.37416 32028 ft 437 kts 266°
2026-05-07 17:09 50.03439 7.27960 32046 ft 437 kts 266°
2026-05-07 17:10 50.03248 7.18509 32045 ft 437 kts 266°
2026-05-07 17:10 50.03044 7.08998 32013 ft 437 kts 266°
2026-05-07 17:11 50.02835 6.99547 32003 ft 438 kts 266°
2026-05-07 17:11 50.02613 6.90093 31989 ft 438 kts 266°
2026-05-07 17:12 50.02388 6.80625 32032 ft 438 kts 266°
2026-05-07 17:12 50.02155 6.71158 32032 ft 438 kts 266°
2026-05-07 17:13 50.01861 6.61698 32039 ft 438 kts 265°
2026-05-07 17:13 50.01577 6.52175 32017 ft 438 kts 266°
2026-05-07 17:14 50.01446 6.42698 31991 ft 438 kts 264°
2026-05-07 17:14 50.00785 6.38117 31975 ft 435 kts 246°
2026-05-07 17:14 49.99226 6.34116 31969 ft 434 kts 229°
2026-05-07 17:15 49.95065 6.27329 31929 ft 434 kts 225°
2026-05-07 17:15 49.90860 6.20620 31932 ft 434 kts 226°
2026-05-07 17:16 49.86677 6.13872 31959 ft 434 kts 226°
2026-05-07 17:16 49.83002 6.06456 31973 ft 434 kts 234°
2026-05-07 17:17 49.79533 5.98807 31979 ft 434 kts 234°
2026-05-07 17:17 49.76053 5.91172 31971 ft 434 kts 234°
2026-05-07 17:18 49.73191 5.83001 31973 ft 435 kts 249°
2026-05-07 17:18 49.71145 5.74127 31938 ft 435 kts 249°
2026-05-07 17:19 49.69106 5.65324 31919 ft 435 kts 249°
2026-05-07 17:19 49.67042 5.56478 31919 ft 442 kts 249°
2026-05-07 17:20 49.64941 5.47525 31925 ft 444 kts 249°
2026-05-07 17:20 49.62826 5.38552 31923 ft 446 kts 249°
2026-05-07 17:21 49.60836 5.29495 31927 ft 446 kts 251°
2026-05-07 17:21 49.59897 5.25019 31912 ft 429 kts 251°
2026-05-07 17:21 49.59246 5.20648 31806 ft 414 kts 263°
2026-05-07 17:22 49.59175 5.16241 31407 ft 409 kts 270°
2026-05-07 17:22 49.59232 5.11896 31042 ft 403 kts 270°
2026-05-07 17:22 49.59277 5.07590 30700 ft 400 kts 269°
2026-05-07 17:22 49.59315 5.03306 30343 ft 400 kts 269°
2026-05-07 17:23 49.59350 4.99019 29985 ft 401 kts 269°
2026-05-07 17:23 49.59380 4.94726 29612 ft 401 kts 269°
2026-05-07 17:23 49.59408 4.90423 29156 ft 401 kts 269°
2026-05-07 17:23 49.59433 4.86115 28706 ft 402 kts 269°
2026-05-07 17:24 49.59455 4.81805 28256 ft 403 kts 269°
2026-05-07 17:24 49.59474 4.77492 27828 ft 402 kts 269°
2026-05-07 17:24 49.59494 4.73184 27408 ft 401 kts 269°
2026-05-07 17:24 49.59516 4.68898 26971 ft 398 kts 269°
2026-05-07 17:25 49.59536 4.64656 26545 ft 395 kts 269°
2026-05-07 17:25 49.59554 4.60432 26045 ft 393 kts 269°
2026-05-07 17:25 49.59570 4.56242 25497 ft 390 kts 269°
2026-05-07 17:25 49.59584 4.52088 24961 ft 385 kts 269°
2026-05-07 17:26 49.59597 4.47977 24339 ft 381 kts 269°
2026-05-07 17:26 49.59608 4.43931 23812 ft 375 kts 269°
2026-05-07 17:26 49.59618 4.39936 23243 ft 371 kts 269°
2026-05-07 17:26 49.59626 4.35979 22645 ft 367 kts 269°
2026-05-07 17:27 49.59633 4.32061 22059 ft 364 kts 269°
2026-05-07 17:27 49.59639 4.28156 21470 ft 361 kts 269°
2026-05-07 17:27 49.59643 4.24318 20892 ft 359 kts 269°
2026-05-07 17:27 49.59648 4.20492 20342 ft 356 kts 269°
2026-05-07 17:28 49.59648 4.16706 19841 ft 352 kts 269°
2026-05-07 17:28 49.59647 4.12960 19361 ft 349 kts 269°
2026-05-07 17:28 49.59632 4.09223 18883 ft 347 kts 266°
2026-05-07 17:28 49.59072 4.05641 18392 ft 345 kts 245°
2026-05-07 17:29 49.57823 4.02436 17865 ft 344 kts 237°
2026-05-07 17:29 49.56525 3.99409 17338 ft 342 kts 237°
2026-05-07 17:29 49.55219 3.96321 16808 ft 339 kts 237°
2026-05-07 17:29 49.53945 3.93285 16313 ft 336 kts 238°
2026-05-07 17:30 49.52695 3.90264 15857 ft 333 kts 238°
2026-05-07 17:30 49.51444 3.87269 15410 ft 331 kts 238°
2026-05-07 17:30 49.50196 3.84293 14963 ft 330 kts 237°
2026-05-07 17:30 49.48950 3.81339 14519 ft 328 kts 237°
2026-05-07 17:31 49.47730 3.78387 14072 ft 326 kts 243°
2026-05-07 17:31 49.46972 3.75153 13645 ft 318 kts 255°
2026-05-07 17:31 49.46448 3.71897 13216 ft 309 kts 256°
2026-05-07 17:31 49.45926 3.68738 13010 ft 296 kts 255°
2026-05-07 17:32 49.45423 3.65714 13005 ft 285 kts 255°
2026-05-07 17:32 49.44930 3.62780 12977 ft 288 kts 255°
2026-05-07 17:32 49.44428 3.59791 12989 ft 290 kts 255°
2026-05-07 17:32 49.44085 3.57762 12994 ft 291 kts 255°
2026-05-07 17:33 49.43407 3.53765 13005 ft 292 kts 255°
2026-05-07 17:33 49.43060 3.51723 13018 ft 293 kts 255°
2026-05-07 17:33 49.42370 3.47676 13025 ft 293 kts 255°
2026-05-07 17:33 49.42028 3.45670 13014 ft 293 kts 255°
2026-05-07 17:34 49.41153 3.41731 13001 ft 293 kts 246°
2026-05-07 17:34 49.40602 3.39810 12911 ft 296 kts 246°
2026-05-07 17:34 49.39791 3.36893 12624 ft 297 kts 247°
2026-05-07 17:34 49.38981 3.33948 12339 ft 294 kts 247°
2026-05-07 17:35 49.38194 3.31066 12082 ft 292 kts 247°
2026-05-07 17:35 49.37416 3.28196 11830 ft 291 kts 247°
2026-05-07 17:35 49.36642 3.25337 11586 ft 289 kts 247°
2026-05-07 17:35 49.35869 3.22475 11320 ft 289 kts 247°
2026-05-07 17:36 49.35093 3.19607 11059 ft 288 kts 247°
2026-05-07 17:36 49.34327 3.16772 10819 ft 287 kts 247°
2026-05-07 17:36 49.33563 3.13940 10581 ft 287 kts 247°
2026-05-07 17:36 49.32799 3.11119 10328 ft 286 kts 247°
2026-05-07 17:37 49.32039 3.08307 10083 ft 286 kts 247°
2026-05-07 17:37 49.31268 3.05460 9834 ft 285 kts 247°
2026-05-07 17:37 49.30505 3.02651 9582 ft 284 kts 247°
2026-05-07 17:37 49.29752 2.99874 9315 ft 282 kts 247°
2026-05-07 17:38 49.28990 2.97070 9041 ft 280 kts 247°
2026-05-07 17:38 49.28244 2.94328 8781 ft 279 kts 247°
2026-05-07 17:38 49.27496 2.91584 8586 ft 276 kts 247°
2026-05-07 17:38 49.26755 2.88866 8428 ft 277 kts 247°
2026-05-07 17:39 49.26014 2.86153 8305 ft 276 kts 247°
2026-05-07 17:39 49.25273 2.83441 8218 ft 276 kts 247°
2026-05-07 17:39 49.24533 2.80734 8119 ft 277 kts 246°
2026-05-07 17:39 49.23789 2.78019 8016 ft 276 kts 247°
2026-05-07 17:40 49.23045 2.75311 7920 ft 276 kts 247°
2026-05-07 17:40 49.22304 2.72610 7815 ft 275 kts 247°
2026-05-07 17:40 49.21563 2.69914 7719 ft 275 kts 246°
2026-05-07 17:40 49.20822 2.67221 7622 ft 274 kts 247°
2026-05-07 17:41 49.20082 2.64536 7521 ft 274 kts 246°
2026-05-07 17:41 49.19352 2.61890 7430 ft 274 kts 247°
2026-05-07 17:41 49.18603 2.59177 7332 ft 273 kts 247°
2026-05-07 17:41 49.18065 2.56497 7213 ft 262 kts 262°
2026-05-07 17:42 49.17939 2.53775 7074 ft 252 kts 268°
2026-05-07 17:42 49.17918 2.51157 6929 ft 240 kts 269°
2026-05-07 17:42 49.17893 2.48659 6794 ft 222 kts 268°
2026-05-07 17:42 49.17859 2.46425 6653 ft 205 kts 268°
2026-05-07 17:43 49.17820 2.44350 6492 ft 187 kts 268°
2026-05-07 17:43 49.17779 2.42422 6315 ft 172 kts 268°
2026-05-07 17:43 49.17739 2.40648 6126 ft 162 kts 268°
2026-05-07 17:43 49.17699 2.38958 5961 ft 157 kts 266°
2026-05-07 17:44 49.17488 2.37319 5788 ft 158 kts 249°
2026-05-07 17:44 49.16910 2.35892 5632 ft 159 kts 228°
2026-05-07 17:44 49.16132 2.34678 5475 ft 161 kts 224°
2026-05-07 17:44 49.15327 2.33496 5312 ft 161 kts 224°
2026-05-07 17:45 49.14527 2.32309 5162 ft 160 kts 225°
2026-05-07 17:45 49.13731 2.31115 5006 ft 160 kts 225°
2026-05-07 17:45 49.12940 2.29917 4858 ft 160 kts 225°
2026-05-07 17:45 49.12149 2.28721 4705 ft 160 kts 225°
2026-05-07 17:46 49.11358 2.27522 4544 ft 160 kts 225°
2026-05-07 17:46 49.10569 2.26327 4388 ft 160 kts 225°
2026-05-07 17:46 49.09780 2.25131 4232 ft 160 kts 225°
2026-05-07 17:46 49.08992 2.23934 4076 ft 160 kts 225°
2026-05-07 17:47 49.08204 2.22739 3946 ft 158 kts 225°
2026-05-07 17:47 49.07437 2.21572 4002 ft 158 kts 225°
2026-05-07 17:47 49.06654 2.20380 4019 ft 160 kts 225°
2026-05-07 17:47 49.05867 2.19180 4032 ft 160 kts 225°
2026-05-07 17:48 49.05048 2.18030 4032 ft 161 kts 213°
2026-05-07 17:48 49.04013 2.17435 4024 ft 160 kts 187°
2026-05-07 17:48 49.02911 2.17538 4001 ft 160 kts 164°
2026-05-07 17:48 49.01920 2.18272 3966 ft 158 kts 141°
2026-05-07 17:49 49.01201 2.19513 3967 ft 157 kts 120°
2026-05-07 17:49 49.00830 2.21084 3896 ft 161 kts 97°
2026-05-07 17:49 49.00853 2.22773 3776 ft 158 kts 84°
2026-05-07 17:49 49.00934 2.24429 3647 ft 156 kts 87°
2026-05-07 17:50 49.00990 2.26060 3516 ft 156 kts 85°
2026-05-07 17:50 49.01091 2.27729 3355 ft 155 kts 84°
2026-05-07 17:50 49.01194 2.29363 3196 ft 155 kts 84°
2026-05-07 17:50 49.01289 2.30989 3049 ft 153 kts 84°
2026-05-07 17:51 49.01382 2.32573 2892 ft 146 kts 85°
2026-05-07 17:51 49.01463 2.34067 2712 ft 138 kts 85°
2026-05-07 17:51 49.01543 2.35498 2532 ft 134 kts 84°
2026-05-07 17:51 49.01622 2.36909 2335 ft 133 kts 85°
2026-05-07 17:52 49.01701 2.38308 2142 ft 133 kts 85°
2026-05-07 17:52 49.01777 2.39707 1958 ft 132 kts 84°
2026-05-07 17:52 49.01857 2.41098 1773 ft 132 kts 85°
2026-05-07 17:52 49.01933 2.42486 1584 ft 132 kts 85°
2026-05-07 17:53 49.02007 2.43873 1394 ft 131 kts 85°
2026-05-07 17:53 49.02084 2.45263 1210 ft 132 kts 85°
2026-05-07 17:53 49.02149 2.46643 1066 ft 130 kts 86°
2026-05-07 17:53 49.02213 2.48014 928 ft 129 kts 84°
2026-05-07 17:54 49.02301 2.49368 802 ft 128 kts 83°
2026-05-07 17:54 49.02382 2.50729 678 ft 130 kts 84°
2026-05-07 17:54 49.02452 2.52111 473 ft 130 kts 83°
2026-05-07 17:54 49.02530 2.53431 380 ft 114 kts 84°
2026-05-07 17:55 49.02577 2.54437 370 ft 74 kts 85°
2026-05-07 17:55 49.02604 2.54922 372 ft 29 kts 84°
2026-05-07 17:55 49.02588 2.55214 376 ft 27 kts 108°
2026-05-07 17:55 49.02507 2.55495 367 ft 31 kts 114°
2026-05-07 17:56 49.02478 2.55808 365 ft 30 kts 87°
2026-05-07 17:56 49.02387 2.55964 368 ft 19 kts 178°
2026-05-07 17:56 49.02268 2.55975 371 ft 18 kts 175°
2026-05-07 17:56 49.02119 2.56017 365 ft 23 kts 140°
2026-05-07 17:57 49.02092 2.56248 361 ft 23 kts 111°
2026-05-07 17:57 49.02030 2.56380 363 ft 23 kts 114°
2026-05-07 17:57 49.02039 2.56704 361 ft 24 kts 86°
2026-05-07 17:57 49.02052 2.56958 361 ft 25 kts 84°
2026-05-07 17:58 49.02067 2.57222 363 ft 25 kts 84°
2026-05-07 17:58 49.02080 2.57495 366 ft 26 kts 85°
2026-05-07 17:58 49.02086 2.57778 360 ft 26 kts 101°
2026-05-07 17:58 49.02016 2.58001 360 ft 22 kts 131°
2026-05-07 17:59 49.01883 2.58119 360 ft 23 kts 167°
2026-05-07 17:59 49.01719 2.58144 360 ft 24 kts 175°
2026-05-07 17:59 49.01546 2.58164 354 ft 28 kts 175°
2026-05-07 17:59 49.01341 2.58190 350 ft 31 kts 175°
2026-05-07 18:00 49.01109 2.58220 334 ft 35 kts 173°
2026-05-07 18:00 49.00884 2.58260 333 ft 19 kts 171°
2026-05-07 18:00 49.00836 2.58403 333 ft 17 kts 85°
2026-05-07 18:00 49.00846 2.58590 333 ft 18 kts 85°
2026-05-07 18:01 49.00857 2.58791 330 ft 20 kts 85°
2026-05-07 18:01 49.00869 2.59006 331 ft 21 kts 85°
2026-05-07 18:01 49.00879 2.59233 329 ft 22 kts 84°
2026-05-07 18:01 49.00835 2.59415 333 ft 21 kts 171°
2026-05-07 18:02 49.00531 2.59454 329 ft 23 kts 176°
2026-05-07 18:02 49.00366 2.59473 331 ft 24 kts 174°
2026-05-07 18:02 49.00293 2.59568 333 ft 16 kts 88°
2026-05-07 18:03 49.00281 2.59727 331 ft 15 kts 86°
2026-05-07 18:03 49.00289 2.59839 331 ft 16 kts 85°
2026-05-07 18:03 49.00331 2.59937 332 ft 10 kts 358°
2026-05-07 18:03 49.00400 2.59929 330 ft 8 kts 356°
2026-05-07 18:04 49.00414 2.59962 330 ft 4 kts 79°
2026-05-07 18:04 49.00416 2.60001 333 ft 3 kts 86°